Nashua, NH

4:42 PM EDT on September 22, 2019 (GMT -0400)
Boire

Weather History for KASH - August, 2019

Change the Weather History Date:

Monday, August 19, 2019

  Actual Average Record
Temperature  
Mean Temperature 80 °F -  
Max Temperature 91 °F 79 °F 92 °F (1966)
Min Temperature 69 °F 54 °F 40 °F (1968)
Cooling Degree Days 15    
Growing Degree Days 30 (Base 50)    
Moisture  
Dew Point 71 °F    
Average Humidity 84    
Maximum Humidity 100    
Minimum Humidity 48    
Precipitation  
Precipitation 0.02 in - - ()
Sea Level Pressure  
Sea Level Pressure 29.95 in    
Wind  
Wind Speed 2 mph (WSW)    
Max Wind Speed 9 mph    
Max Gust Speed 18 mph    
Visibility 9 miles    
Events Rain , Thunderstorm    
Averages and records for this station are not official NWS values.
T = Trace of Precipitation, MM = Missing Value Source: NWS Daily Summary

Daily Weather History Graph

Daily Weather History Graph

Search for Another Location

Airport or City:

Astronomy

Aug. 19, 2019 Rise Set
Actual Time 5:56 AM EDT 7:42 PM EDT
Civil Twilight 5:26 AM EDT 8:12 PM EDT
Nautical Twilight 4:49 AM EDT 8:48 PM EDT
Astronomical Twilight 4:09 AM EDT 9:28 PM EDT
Moon 9:56 PM EDT (8/19) 9:39 AM EDT (8/19)
Length of Visible Light 14h 46m
Length of Day
13h 45m
Waning Gibbous, 85% of the Moon is Illuminated
Aug 19
Waning Gibbous
Aug 23
Last Quarter
Aug 30
New
Sep 5
First Quarter
Sep 14
Full

Hourly Weather History & Observations

Time (EDT) Temp. Heat Index Dew Point Humidity Pressure Visibility Wind Dir Wind Speed Gust Speed Precip Events Conditions
12:56 AM 72.0 °F - 72.0 °F 100% 29.94 in 10.0 mi Calm Calm - N/A   Clear
1:42 AM 71.6 °F - 71.6 °F 100% 29.93 in 9.0 mi Calm Calm - N/A   Partly Cloudy
1:56 AM 71.1 °F - 71.1 °F 100% 29.96 in 9.0 mi Calm Calm - N/A   Clear
2:10 AM 71.6 °F - 71.6 °F 100% 29.95 in 10.0 mi Calm Calm - N/A   Partly Cloudy
2:25 AM 69.8 °F - 69.8 °F 100% 29.95 in 10.0 mi Calm Calm - N/A   Mostly Cloudy
2:56 AM 71.1 °F - 71.1 °F 100% 29.96 in 10.0 mi Calm Calm - N/A   Overcast
3:56 AM 71.1 °F - 71.1 °F 100% 29.97 in 10.0 mi WNW 3.5 mph - N/A   Overcast
4:15 AM 71.6 °F - 71.6 °F 100% 29.96 in 9.0 mi Calm Calm - N/A   Overcast
4:31 AM 69.8 °F - 69.8 °F 100% 29.97 in 2.5 mi Calm Calm - N/A   Overcast
4:54 AM 69.8 °F - 69.8 °F 100% 29.97 in 8.0 mi Calm Calm - N/A   Mostly Cloudy
4:56 AM 70.0 °F - 70.0 °F 100% 29.98 in 8.0 mi Calm Calm - N/A   Mostly Cloudy
5:16 AM 69.8 °F - 69.8 °F 100% 29.97 in 3.0 mi Calm Calm - N/A   Mostly Cloudy
5:56 AM 69.1 °F - 69.1 °F 100% 29.99 in 4.0 mi Calm Calm - N/A   Overcast
6:56 AM 72.0 °F - 72.0 °F 100% 29.99 in 10.0 mi ESE 3.5 mph - N/A   Clear
7:56 AM 73.0 °F - 72.0 °F 96% 29.99 in 10.0 mi Calm Calm - 0.01 in   Clear
8:56 AM 77.0 °F - 71.1 °F 82% 29.97 in 10.0 mi Calm Calm - N/A   Clear
9:56 AM 81.0 °F 85.2 °F 72.0 °F 74% 29.97 in 10.0 mi SSE 4.6 mph - N/A   Clear
10:56 AM 84.9 °F 90.1 °F 71.1 °F 63% 29.97 in 10.0 mi SSW 8.1 mph - N/A   Clear
11:56 AM 87.1 °F 92.8 °F 71.1 °F 59% 29.96 in 10.0 mi South 6.9 mph - N/A   Clear
12:56 PM 90.0 °F 93.6 °F 68.0 °F 48% 29.94 in 10.0 mi West 9.2 mph - N/A   Clear
1:56 PM 91.0 °F 97.6 °F 71.1 °F 52% 29.92 in 10.0 mi Variable 6.9 mph - N/A   Scattered Clouds
2:56 PM 91.0 °F 96.6 °F 70.0 °F 50% 29.91 in 10.0 mi WSW 6.9 mph 18.4 mph N/A   Scattered Clouds
3:46 PM 87.8 °F 93.8 °F 71.6 °F 58% 29.89 in 10.0 mi WSW 6.9 mph 16.1 mph N/A Thunderstorm Scattered Clouds
3:56 PM 88.0 °F 93.8 °F 71.1 °F 57% 29.91 in 10.0 mi West 8.1 mph 16.1 mph N/A Thunderstorm Scattered Clouds
4:00 PM 87.8 °F 93.8 °F 71.6 °F 58% 29.90 in 10.0 mi Variable 6.9 mph - N/A Thunderstorm Scattered Clouds
4:10 PM 87.8 °F 93.8 °F 71.6 °F 58% 29.90 in 10.0 mi WSW 4.6 mph 16.1 mph N/A Thunderstorm Scattered Clouds
4:17 PM 87.8 °F 93.8 °F 71.6 °F 58% 29.91 in 10.0 mi WSW 4.6 mph 16.1 mph N/A   Scattered Clouds
4:56 PM 84.0 °F 89.0 °F 71.1 °F 65% 29.92 in 10.0 mi WNW 8.1 mph - N/A Thunderstorm Mostly Cloudy
5:17 PM 78.8 °F - 73.4 °F 83% 29.91 in 10.0 mi West 5.8 mph 13.8 mph 0.00 in Rain , Thunderstorm Rain
5:56 PM 77.0 °F - 72.0 °F 84% 29.91 in 10.0 mi WNW 9.2 mph - 0.01 in   Mostly Cloudy
6:56 PM 79.0 °F - 73.0 °F 82% 29.93 in 10.0 mi West 4.6 mph - N/A   Mostly Cloudy
7:56 PM 75.9 °F - 73.9 °F 94% 29.95 in 10.0 mi Variable 3.5 mph - N/A   Mostly Cloudy
8:56 PM 75.9 °F - 73.0 °F 91% 29.97 in 10.0 mi Calm Calm - N/A   Clear
9:56 PM 73.0 °F - 73.0 °F 100% 29.98 in 10.0 mi Calm Calm - N/A   Clear
10:56 PM 72.0 °F - 71.1 °F 97% 29.98 in 10.0 mi Calm Calm - N/A   Clear
11:56 PM 70.0 °F - 70.0 °F 100% 29.99 in 10.0 mi Calm Calm - N/A   Clear